Regional Weather Roundup
Issued by NWS Sioux Falls, SD

Home | Current Version | Previous Version | Graphics & Text | Print | Product List | Glossary On
Versions: 1 2 3 4 5 6 7 8 9 10 11 12 13 14 15 16 17 18 19 20 21 22 23 24 25 26 27 28 29 30 31 32 33 34 35 36 37 38 39 40 41 42 43 44 45 46 47 48 49 50
000
ASUS43 KFSD 230002
RWRFSD

WEATHER ROUNDUP FOR SE SOUTH DAKOTA/SW MINNESOTA/NW IOWA
NATIONAL WEATHER SERVICE SIOUX FALLS SD
700 PM CDT FRI MAY 22 2015

NOTE: "FAIR" INDICATES FEW OR NO CLOUDS BELOW 12,000 FEET WITH NO
SIGNIFICANT WEATHER AND OR OBSTRUCTIONS TO VISIBILITY.


SDZ038>040-050-052>070-230100-
SOUTHEAST SOUTH DAKOTA

CITY           SKY/WX    TMP DP  RH WIND       PRES   REMARKS
BROOKINGS      CLOUDY    72  34  25 S7        30.14S
CHAMBERLAIN    CLOUDY    58  43  57 S18G24    30.16R
6HR MIN TEMP:  58; 6HR MAX TEMP:  69;

HURON          CLOUDY    69  41  36 S8        30.11F
6HR MIN TEMP:  69; 6HR MAX TEMP:  75;

MADISON        FAIR      68  37  32 SW18G24   30.14S
MITCHELL       CLOUDY    64  43  46 SW23      30.16R
6HR MIN TEMP:  64; 6HR MAX TEMP:  75;

SIOUX FALLS    CLOUDY    66  40  38 SW13G24   30.15S
6HR MIN TEMP:  66; 6HR MAX TEMP:  75;

WINNER         CLOUDY    57  41  55 S13       30.15F
YANKTON        CLOUDY    61  41  48 S14G22    30.18F
$$

MNZ071-072-080-081-089-090-097-098-230100-
SOUTHWEST MINNESOTA

CITY           SKY/WX    TMP DP  RH WIND       PRES   REMARKS
FAIRMONT       CLOUDY    70  34  26 SE8       30.17S
JACKSON        CLOUDY    72  34  25 S5        30.17F
LUVERNE        CLOUDY    72  36  26 SW16      30.15S
MARSHALL       CLOUDY    73  34  23 SE6       30.13F
6HR MIN TEMP:  72; 6HR MAX TEMP:  75;

MONTEVIDEO     PTSUNNY   73  34  23 S6        30.15S
REDWOOD FALLS  PTSUNNY   74  31  20 E7        30.15S
TRACY          CLOUDY    74  34  22 E5        30.15S
WINDOM         CLOUDY    72  28  20 CALM      30.16F
WORTHINGTON    CLOUDY    72  32  23 S7        30.16S
$$

IAZ001>003-012>014-020>022-031-032-NEZ013-014-SDZ071-230100-
NORTHWEST IOWA

CITY           SKY/WX    TMP DP  RH WIND       PRES   REMARKS
DENISON        CLOUDY    59  48  67 S9        30.19F
ESTHERVILLE    CLOUDY    69  34  27 S5        30.16F
SIOUX CITY     CLOUDY    63  41  44 S15       30.19F
6HR MIN TEMP:  63; 6HR MAX TEMP:  74;

SPENCER        CLOUDY    71  44  37 SE3       30.16F
6HR MIN TEMP:  70; 6HR MAX TEMP:  76;

$$

ABBREVIATIONS USED IN REMARKS
   TC - TEMPERATURE IN CELSIUS
  WCI - WIND CHILL INDEX
   HX - HEAT INDEX
  VSB - VISIBILITY




USA.gov is the U.S. government's official web portal to all federal, state and local government web resources and services.